Location: Ozark
(37.5425°N, 88.7628°W)
Time: 11:22:46
(UTC+00:00)

ISS - Pass Details

Date: 26 January 2020
Orbit: 415 x 423 km, 51.6° (Epoch: 27 February)

Event Time Altitude Azimuth Distance (km) Brightness Sun altitude
Rises 23:31:02 0° 269° (W) 2,374 1.7 -4.3°
Reaches altitude 10° 23:33:37 10° 289° (WNW) 1,510 -0.1 -4.8°
Maximum altitude 23:36:02 18° 334° (NNW) 1,118 -1.5 -5.3°
Drops below altitude 10° 23:38:27 10° 20° (NNE) 1,512 -1.3 -5.7°
Enters shadow 23:40:10 - 35° (NE) 2,065 -0.7 -6.0°
